PROFILE

 METAR AND TAF INFORMATION
ADDS - METARS form results

(1448 UTC 22 January 2019)
http://aviationweather.gov/metar/data/
 
LFBD 221430Z AUTO 32011KT 9999 FEW043/// SCT170/// OVC190/// ///TCU 09/03 Q1009 NOSIG
LFBD 221400Z AUTO 31011KT 9999 FEW034 BKN054 OVC190 09/04 Q1009 TEMPO SCT020TCU BKN030
TAF LFBD 221100Z 2212/2318 24008KT 9999 SCT025 TX08/2214Z TN03/2303Z TEMPO 2213/2218 30010G20KT PROB30 TEMPO 2214/2218 -SHRA SCT020TCU BKN030 TEMPO 2218/2314 3000 SHRA BKN020TCU BECMG 2307/2309 32010KT 

 AIRPORT MAP

 RUNWAY INFORMATION
Runway 05 Runway length 10171 ft Runway width 148 ft
Runway elevation 160 ft Runway displaced threshold 0 ft Runway heading 46
Runway 23 Runway length 10171 ft Runway width 148 ft
Runway elevation 151 ft Runway displaced threshold 0 ft Runway heading 226
Runway 11 Runway length 7923 ft Runway width 148 ft
Runway elevation 153 ft Runway displaced threshold 0 ft Runway heading 107
Runway 29 Runway length 7923 ft Runway width 148 ft
Runway elevation 160 ft Runway displaced threshold 0 ft Runway heading 287

 AIRPORT FREQUENCIES
Type APP Name AQUITAINE Frequency 118.6 MHZ
Type ARR Name APP Frequency 121.2 MHZ
Type ATIS Name ATIS Frequency 131.15 MHZ
Type GND Name GND Frequency 121.9 MHZ
Type INFO Name AQUITAINE Frequency 120.575 MHZ
Type OPS Name OPNS Frequency 143.175 MHZ
Type TWR Name TWR Frequency 118.3 MHZ

 AIRPORT NEAR NAVIGATION AIDS
Type NDB Name Bordeaux Frequency 393 KHZ
Type TACAN Name Bordeaux Frequency 114400 KHZ
Type NDB Name Bordeaux Frequency 318 KHZ
Type VOR-DME Name Bordeaux Frequency 113750 KHZ
Type NDB Name Bordeaux Frequency 361 KHZ